Flag for Spain

Past Weather in 28°43'53.5"N, 13°52'07.6"W, Spain — Yesterday and Last 2 Weeks

Currently: 68 °F. Passing clouds. (Weather station: Fuerteventura / Aeropuerto, Spain). See more current weather

Past Weather in 28°43'53.5"N, 13°52'07.6"W — Graph

°F

28°43'53.5"N, 13°52'07.6"W Temperature Yesterday

Maximum temperature yesterday: 72 °F (at 1:00 pm)
Minimum temperature yesterday: 63 °F (at 4:00 am)
Average temperature yesterday: 66 °F

High & Low Weather Summary for the Past Weeks

 TemperatureHumidityPressure
High79 °F (Feb 22, 1:00 pm)94% (Feb 27, 2:30 am)30.36 "Hg (Feb 27, 2:30 am)
Low59 °F (Feb 22, 7:00 am)44% (Feb 19, 7:30 pm)29.95 "Hg (Feb 14, 9:00 am)
Average68 °F70%30.21 "Hg
* Reported Feb 14 9:00 am — Feb 29 9:30 am, 28°43'53.5"N, 13°52'07.6"W. Weather by CustomWeather, © 2024

Note: Actual official high and low records may vary slightly from our data, if they occured in-between our weather recording intervals... More about our weather records

28°43'53.5"N, 13°52'07.6"W Weather History for the Previous 24 Hours

Scroll right to see more
 ConditionsComfort  
Time TempWeatherWind HumidityBarometerVisibility
9:30 am
Thu, Feb 29
68 °FPassing clouds.25 mph60%30.21 "HgN/A
9:00 am66 °FPassing clouds.21 mph64%30.21 "HgN/A
8:30 am66 °FPassing clouds.21 mph68%30.18 "HgN/A
8:00 am64 °FPassing clouds.16 mph68%30.18 "HgN/A
7:30 am64 °FPassing clouds.20 mph64%30.18 "HgN/A
7:00 am64 °FPassing clouds.21 mph68%30.18 "HgN/A
6:30 am64 °FPassing clouds.20 mph68%30.18 "HgN/A
6:00 am64 °FPassing clouds.18 mph68%30.18 "HgN/A
5:30 am64 °FPassing clouds.18 mph68%30.15 "HgN/A
4:30 am64 °FOvercast.21 mph68%30.18 "Hg6 mi
4:00 am64 °FMostly cloudy.22 mph68%30.18 "HgN/A
3:30 am64 °FMostly cloudy.24 mph73%30.18 "Hg6 mi
3:00 am64 °FMostly cloudy.23 mph73%30.18 "Hg6 mi
2:30 am64 °FMostly cloudy.24 mph73%30.21 "Hg6 mi
2:00 am64 °FMostly cloudy.23 mph68%30.21 "Hg6 mi
1:30 am64 °FMostly cloudy.24 mph73%30.21 "Hg6 mi
1:00 am66 °FMostly cloudy.24 mph68%30.21 "Hg5 mi
12:30 am64 °FOvercast.23 mph73%30.21 "Hg5 mi
12:00 am64 °FMostly cloudy.24 mph73%30.21 "Hg5 mi
11:30 pm
Wed, Feb 28
64 °FPassing clouds.23 mph73%30.21 "HgN/A
11:00 pm64 °FPassing clouds.25 mph73%30.21 "HgN/A
10:30 pm64 °FPassing clouds.24 mph68%30.21 "HgN/A
10:00 pm64 °FPassing clouds.24 mph68%30.21 "HgN/A
9:30 pm64 °FPassing clouds.22 mph68%30.21 "HgN/A
9:00 pm64 °FPassing clouds.25 mph68%30.21 "HgN/A
8:30 pm64 °FPassing clouds.23 mph68%30.21 "HgN/A
8:00 pm64 °FPassing clouds.24 mph73%30.18 "HgN/A
7:30 pm64 °FPassing clouds.26 mph73%30.18 "HgN/A
7:00 pm66 °FPassing clouds.25 mph68%30.18 "HgN/A
6:30 pm66 °FPassing clouds.28 mph68%30.18 "HgN/A
6:00 pm66 °FPassing clouds.28 mph73%30.18 "HgN/A
5:30 pm66 °FPassing clouds.26 mph68%30.18 "HgN/A
5:00 pm68 °FPassing clouds.28 mph64%30.18 "HgN/A
4:30 pm68 °FScattered clouds.28 mph64%30.18 "HgN/A
4:00 pm68 °FScattered clouds.29 mph64%30.18 "HgN/A
3:30 pm68 °FScattered clouds.30 mph64%30.18 "HgN/A
3:00 pm68 °FScattered clouds.30 mph60%30.18 "HgN/A
2:30 pm70 °FScattered clouds.29 mph60%30.18 "HgN/A
2:00 pm70 °FScattered clouds.28 mph60%30.18 "HgN/A
1:30 pm70 °FScattered clouds.29 mph60%30.21 "HgN/A
1:00 pm72 °FScattered clouds.29 mph61%30.21 "HgN/A
12:30 pm70 °FPassing clouds.29 mph60%30.24 "HgN/A
12:00 pm68 °FPassing clouds.29 mph64%30.24 "HgN/A
11:30 am70 °FScattered clouds.29 mph60%30.24 "HgN/A
11:00 am68 °FScattered clouds.28 mph64%30.24 "HgN/A
10:30 am68 °FScattered clouds.28 mph60%30.24 "HgN/A
10:00 am66 °FScattered clouds.29 mph64%30.24 "HgN/A
Weather by CustomWeather, © 2024

See weather overview